B12HU ZUCK-ZBAA

Flight info

Callsign B12HU
Flight time 2h 25m
Altitude 44900
Route OVNUL1Z OVNUL W677 IGIRO W4 VADMO W56 LEBUN/K0893S1310 W56 NUDKU/K0893S1370 W56 DUGEB DUGEB6J
Aircraft C700/M-SBDGHM1RWXY/LB2

Departure

Time 2026-04-26 11:39
Airport Chongqing Jiangbei International Airport (ZUCK)

Arrival

Time 2026-04-26 14:04
Airport Beijing Capital International Airport (ZBAA)
Time Latitude Longitude Altitude Speed Heading
2026-04-26 11:29 29.72456 106.65591 1340 ft 0 kts 16°
2026-04-26 11:31 29.72453 106.65590 1342 ft 3 kts 16°
2026-04-26 11:32 29.72428 106.65583 1341 ft 4 kts 10°
2026-04-26 11:32 29.72401 106.65580 1340 ft 4 kts 351°
2026-04-26 11:32 29.72380 106.65590 1342 ft 4 kts 294°
2026-04-26 11:32 29.72377 106.65599 1341 ft 0 kts 287°
2026-04-26 11:34 29.72378 106.65598 1341 ft 0 kts 301°
2026-04-26 11:35 29.72384 106.65597 1341 ft 1 kts 358°
2026-04-26 11:35 29.72383 106.65610 1339 ft 5 kts 112°
2026-04-26 11:35 29.72345 106.65734 1336 ft 27 kts 110°
2026-04-26 11:35 29.72284 106.65957 1331 ft 28 kts 107°
2026-04-26 11:36 29.72228 106.66111 1329 ft 18 kts 102°
2026-04-26 11:36 29.72176 106.66195 1328 ft 12 kts 193°
2026-04-26 11:36 29.72086 106.66164 1328 ft 15 kts 197°
2026-04-26 11:36 29.71981 106.66126 1329 ft 17 kts 197°
2026-04-26 11:37 29.71865 106.66085 1330 ft 18 kts 197°
2026-04-26 11:37 29.71786 106.66110 1330 ft 13 kts 109°
2026-04-26 11:37 29.71782 106.66126 1330 ft 0 kts 107°
2026-04-26 11:38 29.71773 106.66160 1330 ft 9 kts 107°
2026-04-26 11:38 29.71769 106.66255 1329 ft 15 kts 45°
2026-04-26 11:38 29.71924 106.66311 1327 ft 49 kts 17°
2026-04-26 11:38 29.72566 106.66531 1366 ft 138 kts 15°
2026-04-26 11:39 29.73604 106.66879 2242 ft 169 kts 19°
2026-04-26 11:39 29.74809 106.67311 3330 ft 195 kts 21°
2026-04-26 11:39 29.76185 106.67801 4361 ft 221 kts 19°
2026-04-26 11:39 29.77722 106.68451 5406 ft 248 kts 17°
2026-04-26 11:40 29.79322 106.69399 6461 ft 274 kts 39°
2026-04-26 11:40 29.80821 106.70901 7569 ft 295 kts 41°
2026-04-26 11:40 29.82480 106.72308 9136 ft 298 kts 32°
2026-04-26 11:40 29.84296 106.73517 10516 ft 311 kts 28°
2026-04-26 11:41 29.86247 106.74805 11404 ft 339 kts 30°
2026-04-26 11:42 30.02061 106.86379 19526 ft 410 kts 30°
2026-04-26 11:43 30.04488 106.88147 20550 ft 416 kts 30°
2026-04-26 11:43 30.06964 106.89921 21524 ft 423 kts 29°
2026-04-26 11:43 30.09486 106.91699 22515 ft 429 kts 28°
2026-04-26 11:43 30.12039 106.93514 23451 ft 435 kts 29°
2026-04-26 11:44 30.14679 106.95247 24189 ft 439 kts 22°
2026-04-26 11:44 30.17540 106.96467 24976 ft 441 kts 13°
2026-04-26 11:44 30.20551 106.97152 25767 ft 444 kts
2026-04-26 11:44 30.23620 106.97642 26542 ft 449 kts
2026-04-26 11:45 30.26727 106.98145 27292 ft 455 kts
2026-04-26 11:45 30.29888 106.98662 28007 ft 461 kts
2026-04-26 11:45 30.33079 106.99183 28709 ft 467 kts
2026-04-26 11:45 30.36316 106.99709 29429 ft 473 kts
2026-04-26 11:46 30.39584 107.00241 30131 ft 479 kts
2026-04-26 11:46 30.42902 107.00781 30679 ft 486 kts
2026-04-26 11:46 30.46240 107.01328 31481 ft 484 kts
2026-04-26 11:46 30.49551 107.01871 32319 ft 481 kts
2026-04-26 11:47 30.52858 107.02473 33085 ft 482 kts
2026-04-26 11:47 30.56071 107.03576 33883 ft 485 kts 17°
2026-04-26 11:47 30.59133 107.05213 34601 ft 487 kts 25°
2026-04-26 11:47 30.61978 107.07353 35316 ft 489 kts 32°
2026-04-26 11:48 30.64732 107.09661 35902 ft 490 kts 32°
2026-04-26 11:48 30.67486 107.11959 36598 ft 486 kts 32°
2026-04-26 11:48 30.70224 107.14240 37149 ft 486 kts 32°
2026-04-26 11:48 30.72961 107.16525 37643 ft 485 kts 32°
2026-04-26 11:49 30.75692 107.18811 38125 ft 485 kts 32°
2026-04-26 11:49 30.78421 107.21096 38565 ft 484 kts 32°
2026-04-26 11:49 30.81146 107.23377 38919 ft 483 kts 32°
2026-04-26 11:49 30.83868 107.25657 39278 ft 482 kts 32°
2026-04-26 11:50 30.86578 107.27930 39614 ft 481 kts 32°
2026-04-26 11:50 30.89289 107.30205 39967 ft 480 kts 32°
2026-04-26 11:50 30.91979 107.32465 40444 ft 475 kts 32°
2026-04-26 11:50 30.94646 107.34706 40781 ft 473 kts 32°
2026-04-26 11:51 30.97304 107.36938 41037 ft 473 kts 31°
2026-04-26 11:51 30.99964 107.39176 41301 ft 472 kts 31°
2026-04-26 11:51 31.02623 107.41415 41466 ft 474 kts 31°
2026-04-26 11:51 31.05352 107.43553 41627 ft 471 kts 24°
2026-04-26 11:52 31.08209 107.45378 41882 ft 469 kts 23°
2026-04-26 11:52 31.11057 107.47217 42119 ft 469 kts 24°
2026-04-26 11:52 31.13889 107.49062 42339 ft 468 kts 24°
2026-04-26 11:52 31.16732 107.50903 42636 ft 466 kts 23°
2026-04-26 11:53 31.19561 107.52724 42864 ft 464 kts 23°
2026-04-26 11:53 31.22377 107.54542 43090 ft 464 kts 23°
2026-04-26 11:53 31.25192 107.56369 43299 ft 464 kts 23°
2026-04-26 11:54 31.30808 107.60013 43746 ft 461 kts 22°
2026-04-26 11:54 31.33611 107.61829 43938 ft 461 kts 22°
2026-04-26 11:54 31.36401 107.63640 44134 ft 460 kts 22°
2026-04-26 11:54 31.39189 107.65454 44302 ft 460 kts 22°
2026-04-26 11:55 31.41984 107.67273 44464 ft 459 kts 22°
2026-04-26 11:55 31.44766 107.69083 44597 ft 459 kts 22°
2026-04-26 11:55 31.47550 107.70896 44709 ft 458 kts 22°
2026-04-26 11:56 31.53130 107.74531 44780 ft 463 kts 22°
2026-04-26 11:56 31.58774 107.78218 44774 ft 467 kts 22°
2026-04-26 11:57 31.64343 107.82246 44767 ft 481 kts 31°
2026-04-26 11:57 31.69524 107.87262 44774 ft 486 kts 33°
2026-04-26 11:58 31.74757 107.92330 44760 ft 490 kts 33°
2026-04-26 11:58 31.80023 107.97421 44776 ft 493 kts 33°
2026-04-26 11:59 31.85300 108.02561 44788 ft 494 kts 33°
2026-04-26 11:59 31.90590 108.07704 44781 ft 494 kts 33°
2026-04-26 12:00 31.95874 108.12853 44780 ft 494 kts 33°
2026-04-26 12:00 32.01140 108.17994 44786 ft 492 kts 33°
2026-04-26 12:01 32.06305 108.23293 44767 ft 498 kts 40°
2026-04-26 12:01 32.10393 108.29953 44768 ft 512 kts 56°
2026-04-26 12:02 32.13019 108.37821 44768 ft 519 kts 66°
2026-04-26 12:02 32.15330 108.45862 44771 ft 518 kts 66°
2026-04-26 12:03 32.17637 108.53913 44769 ft 521 kts 66°
2026-04-26 12:03 32.20045 108.61967 44757 ft 519 kts 60°
2026-04-26 12:04 32.23785 108.69112 44784 ft 507 kts 44°
2026-04-26 12:04 32.28820 108.74680 44752 ft 488 kts 27°
2026-04-26 12:04 32.31636 108.76790 44746 ft 475 kts 23°
2026-04-26 12:05 32.34452 108.78799 44746 ft 474 kts 23°
2026-04-26 12:05 32.40095 108.82865 44757 ft 475 kts 23°
2026-04-26 12:06 32.45714 108.86882 44746 ft 473 kts 24°
2026-04-26 12:06 32.51355 108.90941 44751 ft 477 kts 23°
2026-04-26 12:07 32.57027 108.95024 44739 ft 480 kts 24°
2026-04-26 12:07 32.62734 108.99138 44734 ft 482 kts 23°
2026-04-26 12:08 32.68448 109.03269 44723 ft 481 kts 24°
2026-04-26 12:08 32.74148 109.07391 44735 ft 480 kts 23°
2026-04-26 12:09 32.79822 109.11500 44729 ft 478 kts 23°
2026-04-26 12:09 32.85475 109.15602 44732 ft 476 kts 23°
2026-04-26 12:10 32.91110 109.19697 44730 ft 475 kts 23°
2026-04-26 12:10 32.96757 109.23801 44757 ft 478 kts 23°
2026-04-26 12:11 33.02440 109.27949 44751 ft 481 kts 23°
2026-04-26 12:11 33.08140 109.32107 44760 ft 482 kts 23°
2026-04-26 12:12 33.13849 109.36286 44763 ft 482 kts 23°
2026-04-26 12:12 33.19551 109.40457 44777 ft 481 kts 23°
2026-04-26 12:13 33.25245 109.44638 44769 ft 481 kts 23°
2026-04-26 12:13 33.30927 109.48818 44777 ft 482 kts 24°
2026-04-26 12:14 33.36109 109.54061 44772 ft 498 kts 40°
2026-04-26 12:14 33.40125 109.60929 44780 ft 513 kts 56°
2026-04-26 12:15 33.42559 109.69040 44769 ft 529 kts 73°
2026-04-26 12:15 33.43524 109.77813 44778 ft 533 kts 79°
2026-04-26 12:16 33.44382 109.86616 44780 ft 534 kts 79°
2026-04-26 12:16 33.45226 109.95443 44778 ft 535 kts 79°
2026-04-26 12:17 33.46070 110.04291 44778 ft 536 kts 79°
2026-04-26 12:17 33.46908 110.13149 44782 ft 536 kts 79°
2026-04-26 12:18 33.47737 110.22007 44778 ft 535 kts 79°
2026-04-26 12:18 33.48561 110.30827 44772 ft 534 kts 79°
2026-04-26 12:19 33.50098 110.39397 44775 ft 522 kts 64°
2026-04-26 12:19 33.53385 110.46975 44787 ft 508 kts 47°
2026-04-26 12:20 33.58054 110.53096 44787 ft 492 kts 32°
2026-04-26 12:20 33.63658 110.57464 44795 ft 474 kts 17°
2026-04-26 12:21 33.69592 110.60849 44789 ft 474 kts 17°
2026-04-26 12:21 33.75538 110.64272 44788 ft 476 kts 17°
2026-04-26 12:22 33.81499 110.67688 44792 ft 477 kts 17°
2026-04-26 12:22 33.87478 110.71132 44796 ft 478 kts 17°
2026-04-26 12:23 33.93459 110.74577 44790 ft 477 kts 17°
2026-04-26 12:23 33.99421 110.78014 44796 ft 476 kts 17°
2026-04-26 12:24 34.05379 110.81469 44799 ft 476 kts 17°
2026-04-26 12:24 34.11340 110.84907 44796 ft 476 kts 17°
2026-04-26 12:25 34.20274 110.90097 44784 ft 475 kts 17°
2026-04-26 12:25 34.26214 110.93547 44773 ft 474 kts 17°
2026-04-26 12:26 34.32161 110.97004 44775 ft 476 kts 17°
2026-04-26 12:26 34.38099 111.00618 44766 ft 485 kts 23°
2026-04-26 12:27 34.43471 111.05773 44773 ft 503 kts 38°
2026-04-26 12:27 34.47721 111.12604 44777 ft 515 kts 52°
2026-04-26 12:28 34.51449 111.19980 44778 ft 512 kts 51°
2026-04-26 12:28 34.55166 111.27305 44768 ft 510 kts 52°
2026-04-26 12:29 34.58870 111.34651 44770 ft 512 kts 52°
2026-04-26 12:30 34.64458 111.45739 44783 ft 515 kts 52°
2026-04-26 12:30 34.68191 111.53172 44768 ft 517 kts 52°
2026-04-26 12:31 34.73781 111.64329 44766 ft 515 kts 52°
2026-04-26 12:31 34.77492 111.71754 44779 ft 515 kts 52°
2026-04-26 12:32 34.81191 111.79172 44781 ft 513 kts 52°
2026-04-26 12:33 34.86707 111.90264 44779 ft 510 kts 52°
2026-04-26 12:33 34.90393 111.97622 44777 ft 510 kts 51°
2026-04-26 12:34 34.94114 112.04980 44790 ft 512 kts 51°
2026-04-26 12:34 34.97812 112.12387 44801 ft 513 kts 51°
2026-04-26 12:35 35.01533 112.19793 44797 ft 514 kts 52°
2026-04-26 12:35 35.05245 112.27244 44812 ft 515 kts 52°
2026-04-26 12:36 35.08974 112.34708 44800 ft 516 kts 52°
2026-04-26 12:36 35.12694 112.42206 44805 ft 518 kts 52°
2026-04-26 12:37 35.16425 112.49707 44799 ft 516 kts 52°
2026-04-26 12:37 35.20119 112.57174 44807 ft 513 kts 52°
2026-04-26 12:38 35.23828 112.64576 44805 ft 510 kts 51°
2026-04-26 12:38 35.27546 112.71960 44826 ft 513 kts 52°
2026-04-26 12:39 35.31267 112.79417 44826 ft 515 kts 51°
2026-04-26 12:39 35.35019 112.86899 44819 ft 518 kts 52°
2026-04-26 12:40 35.38757 112.94425 44825 ft 518 kts 52°
2026-04-26 12:40 35.42496 113.01928 44819 ft 516 kts 52°
2026-04-26 12:41 35.46213 113.09423 44848 ft 515 kts 52°
2026-04-26 12:41 35.49924 113.16916 44825 ft 516 kts 52°
2026-04-26 12:42 35.53645 113.24443 44835 ft 518 kts 52°
2026-04-26 12:42 35.57373 113.32006 44851 ft 519 kts 52°
2026-04-26 12:43 35.61104 113.39589 44851 ft 521 kts 52°
2026-04-26 12:43 35.64906 113.47120 44854 ft 518 kts 51°
2026-04-26 12:44 35.68728 113.54627 44842 ft 519 kts 51°
2026-04-26 12:44 35.72508 113.62162 44846 ft 517 kts 51°
2026-04-26 12:45 35.76305 113.69670 44848 ft 518 kts 51°
2026-04-26 12:45 35.80086 113.77214 44847 ft 519 kts 51°
2026-04-26 12:46 35.83880 113.84767 44860 ft 520 kts 51°
2026-04-26 12:46 35.87656 113.92328 44843 ft 518 kts 51°
2026-04-26 12:47 35.91421 113.99860 44842 ft 517 kts 51°
2026-04-26 12:47 35.95175 114.07402 44842 ft 516 kts 51°
2026-04-26 12:48 35.98923 114.14940 44840 ft 515 kts 51°
2026-04-26 12:48 36.02645 114.22448 44837 ft 514 kts 51°
2026-04-26 12:49 36.06367 114.29968 44827 ft 514 kts 51°
2026-04-26 12:49 36.10087 114.37503 44829 ft 516 kts 51°
2026-04-26 12:50 36.13819 114.45079 44828 ft 518 kts 52°
2026-04-26 12:50 36.17562 114.52695 44827 ft 520 kts 52°
2026-04-26 12:51 36.21307 114.60331 44831 ft 521 kts 52°
2026-04-26 12:51 36.25079 114.67953 44813 ft 515 kts 48°
2026-04-26 12:51 36.27307 114.71339 44809 ft 503 kts 38°
2026-04-26 12:52 36.29903 114.74136 44814 ft 490 kts 27°
2026-04-26 12:52 36.32776 114.76273 44816 ft 476 kts 17°
2026-04-26 12:52 36.35789 114.77865 44822 ft 471 kts 14°
2026-04-26 12:53 36.41862 114.80691 44817 ft 460 kts
2026-04-26 12:53 36.48096 114.82305 44823 ft 460 kts
2026-04-26 12:54 36.54301 114.84451 44815 ft 472 kts 13°
2026-04-26 12:54 36.60247 114.88094 44819 ft 481 kts 20°
2026-04-26 12:55 36.66181 114.91805 44815 ft 474 kts 14°
2026-04-26 12:55 36.72202 114.95112 44818 ft 476 kts 17°
2026-04-26 12:56 36.78137 114.98707 44816 ft 473 kts 16°
2026-04-26 12:56 36.84094 115.02102 44836 ft 472 kts 16°
2026-04-26 12:57 36.90034 115.05626 44815 ft 474 kts 17°
2026-04-26 12:57 36.96002 115.09098 44818 ft 475 kts 16°
2026-04-26 12:58 37.04986 115.14389 44817 ft 478 kts 17°
2026-04-26 12:58 37.11012 115.17930 44824 ft 481 kts 17°
2026-04-26 12:59 37.17052 115.21498 44825 ft 481 kts 17°
2026-04-26 12:59 37.23081 115.25058 44849 ft 479 kts 17°
2026-04-26 13:00 37.29087 115.28614 44817 ft 478 kts 17°
2026-04-26 13:00 37.35104 115.32179 44290 ft 482 kts 17°
2026-04-26 13:01 37.38117 115.33969 43674 ft 478 kts 17°
2026-04-26 13:01 37.41096 115.35748 43049 ft 471 kts 16°
2026-04-26 13:01 37.44020 115.37492 42437 ft 461 kts 16°
2026-04-26 13:01 37.46887 115.39195 41844 ft 452 kts 15°
2026-04-26 13:02 37.49700 115.40868 41257 ft 444 kts 15°
2026-04-26 13:02 37.52466 115.42516 40681 ft 438 kts 15°
2026-04-26 13:02 37.55205 115.44149 40113 ft 435 kts 14°
2026-04-26 13:02 37.57930 115.45774 39543 ft 435 kts 14°
2026-04-26 13:03 37.60672 115.47410 38973 ft 437 kts 14°
2026-04-26 13:03 37.63431 115.49058 38349 ft 442 kts 14°
2026-04-26 13:03 37.66204 115.50722 37750 ft 443 kts 14°
2026-04-26 13:03 37.68982 115.52391 37170 ft 443 kts 14°
2026-04-26 13:04 37.71763 115.54058 36618 ft 444 kts 13°
2026-04-26 13:04 37.74553 115.55706 36087 ft 442 kts 11°
2026-04-26 13:04 37.77399 115.57004 35570 ft 431 kts
2026-04-26 13:04 37.80276 115.57869 35114 ft 422 kts 358°
2026-04-26 13:05 37.83151 115.58339 34642 ft 412 kts 352°
2026-04-26 13:05 37.85977 115.58428 34189 ft 403 kts 347°
2026-04-26 13:05 37.88753 115.58226 33721 ft 400 kts 345°
2026-04-26 13:05 37.91530 115.58012 33223 ft 403 kts 345°
2026-04-26 13:06 37.94340 115.57812 32749 ft 408 kts 345°
2026-04-26 13:06 37.97182 115.57606 32289 ft 412 kts 345°
2026-04-26 13:06 38.00052 115.57392 31848 ft 416 kts 345°
2026-04-26 13:06 38.02948 115.57175 31453 ft 420 kts 345°
2026-04-26 13:07 38.05863 115.56963 31031 ft 421 kts 345°
2026-04-26 13:07 38.08786 115.56769 30621 ft 424 kts 346°
2026-04-26 13:07 38.11733 115.56649 30222 ft 423 kts 345°
2026-04-26 13:07 38.14672 115.56442 29801 ft 425 kts 345°
2026-04-26 13:08 38.17620 115.56227 29358 ft 424 kts 346°
2026-04-26 13:08 38.20551 115.56044 28914 ft 423 kts 347°
2026-04-26 13:08 38.23503 115.56170 28468 ft 428 kts 354°
2026-04-26 13:08 38.26462 115.56702 28039 ft 434 kts
2026-04-26 13:09 38.29401 115.57647 27624 ft 439 kts
2026-04-26 13:09 38.32273 115.59010 27211 ft 445 kts 13°
2026-04-26 13:09 38.35068 115.60736 26818 ft 446 kts 17°
2026-04-26 13:09 38.37832 115.62486 26436 ft 443 kts 17°
2026-04-26 13:10 38.40584 115.64205 26063 ft 440 kts 17°
2026-04-26 13:10 38.43314 115.65915 25724 ft 437 kts 18°
2026-04-26 13:10 38.46014 115.67622 25364 ft 434 kts 18°
2026-04-26 13:10 38.48705 115.69326 25010 ft 430 kts 19°
2026-04-26 13:11 38.51375 115.71010 24666 ft 427 kts 19°
2026-04-26 13:11 38.54027 115.72681 24328 ft 425 kts 19°
2026-04-26 13:11 38.56662 115.74347 23993 ft 422 kts 20°
2026-04-26 13:11 38.59280 115.76006 23661 ft 420 kts 20°
2026-04-26 13:12 38.61883 115.77655 23326 ft 417 kts 21°
2026-04-26 13:12 38.64471 115.79295 22936 ft 415 kts 21°
2026-04-26 13:12 38.67023 115.80898 22126 ft 402 kts 19°
2026-04-26 13:12 38.69648 115.82073 20500 ft 400 kts 10°
2026-04-26 13:13 38.72364 115.82720 18988 ft 396 kts
2026-04-26 13:13 38.75096 115.82827 17761 ft 389 kts 354°
2026-04-26 13:13 38.77688 115.82454 17657 ft 367 kts 347°
2026-04-26 13:13 38.80197 115.81627 17658 ft 384 kts 339°
2026-04-26 13:14 38.82699 115.80285 17658 ft 395 kts 331°
2026-04-26 13:14 38.85037 115.78471 17657 ft 392 kts 323°
2026-04-26 13:14 38.87121 115.76252 17653 ft 389 kts 315°
2026-04-26 13:14 38.88918 115.73680 17647 ft 387 kts 307°
2026-04-26 13:15 38.90398 115.70808 17653 ft 387 kts 299°
2026-04-26 13:15 38.91541 115.67678 17648 ft 388 kts 291°
2026-04-26 13:15 38.92316 115.64363 17648 ft 390 kts 283°
2026-04-26 13:15 38.92706 115.60931 17648 ft 389 kts 275°
2026-04-26 13:16 38.92700 115.57465 17649 ft 389 kts 267°
2026-04-26 13:16 38.92300 115.54039 17643 ft 390 kts 259°
2026-04-26 13:16 38.91508 115.50704 17652 ft 393 kts 251°
2026-04-26 13:16 38.90329 115.47526 17653 ft 397 kts 243°
2026-04-26 13:17 38.86885 115.41951 17642 ft 405 kts 226°
2026-04-26 13:17 38.84676 115.39696 17644 ft 408 kts 218°
2026-04-26 13:18 38.79641 115.36298 17646 ft 410 kts 209°
2026-04-26 13:18 38.77083 115.34691 17645 ft 410 kts 210°
2026-04-26 13:18 38.71976 115.31479 17643 ft 409 kts 210°
2026-04-26 13:19 38.69427 115.29887 17644 ft 409 kts 210°
2026-04-26 13:19 38.66864 115.28283 17645 ft 412 kts 210°
2026-04-26 13:19 38.64276 115.26732 17640 ft 414 kts 205°
2026-04-26 13:19 38.61512 115.25663 17639 ft 417 kts 196°
2026-04-26 13:20 38.58634 115.25154 17638 ft 420 kts 187°
2026-04-26 13:20 38.55711 115.25232 17638 ft 423 kts 178°
2026-04-26 13:20 38.52816 115.25908 17637 ft 427 kts 168°
2026-04-26 13:20 38.50011 115.27182 17638 ft 431 kts 158°
2026-04-26 13:21 38.47378 115.29036 17634 ft 435 kts 148°
2026-04-26 13:21 38.45761 115.30575 17634 ft 438 kts 142°
2026-04-26 13:21 38.42955 115.34302 17635 ft 439 kts 128°
2026-04-26 13:21 38.41307 115.37562 17634 ft 438 kts 118°
2026-04-26 13:22 38.40103 115.41111 17635 ft 437 kts 108°
2026-04-26 13:22 38.39371 115.44857 17635 ft 436 kts 98°
2026-04-26 13:22 38.39129 115.48694 17634 ft 436 kts 89°
2026-04-26 13:22 38.39379 115.52522 17639 ft 434 kts 79°
2026-04-26 13:23 38.40110 115.56235 17637 ft 432 kts 69°
2026-04-26 13:23 38.41294 115.59726 17639 ft 429 kts 59°
2026-04-26 13:23 38.42891 115.62910 17637 ft 426 kts 50°
2026-04-26 13:23 38.44851 115.65708 17646 ft 422 kts 40°
2026-04-26 13:24 38.47108 115.68051 17636 ft 417 kts 31°
2026-04-26 13:24 38.49592 115.69893 17640 ft 412 kts 22°
2026-04-26 13:24 38.52158 115.71493 17644 ft 411 kts 22°
2026-04-26 13:24 38.54720 115.73115 17644 ft 413 kts 23°
2026-04-26 13:25 38.57288 115.74748 17648 ft 413 kts 23°
2026-04-26 13:25 38.59861 115.76375 17649 ft 414 kts 22°
2026-04-26 13:25 38.62442 115.78006 17657 ft 415 kts 23°
2026-04-26 13:25 38.65027 115.79645 17657 ft 415 kts 23°
2026-04-26 13:26 38.67618 115.81213 17656 ft 411 kts 18°
2026-04-26 13:26 38.70330 115.82275 17648 ft 407 kts
2026-04-26 13:26 38.73109 115.82794 17642 ft 402 kts
2026-04-26 13:26 38.75890 115.82769 17644 ft 399 kts 352°
2026-04-26 13:27 38.78614 115.82213 17642 ft 397 kts 344°
2026-04-26 13:27 38.81230 115.81147 17657 ft 395 kts 336°
2026-04-26 13:27 38.83680 115.79603 17649 ft 393 kts 328°
2026-04-26 13:27 38.85924 115.77611 17645 ft 392 kts 320°
2026-04-26 13:28 38.87901 115.75231 17649 ft 390 kts 311°
2026-04-26 13:28 38.89576 115.72516 17652 ft 388 kts 303°
2026-04-26 13:28 38.90918 115.69532 17646 ft 387 kts 296°
2026-04-26 13:28 38.91907 115.66330 17642 ft 386 kts 288°
2026-04-26 13:29 38.92522 115.62985 17645 ft 387 kts 280°
2026-04-26 13:29 38.92719 115.60694 17647 ft 387 kts 275°
2026-04-26 13:29 38.92589 115.56099 17647 ft 388 kts 264°
2026-04-26 13:29 38.92034 115.52708 17644 ft 390 kts 256°
2026-04-26 13:30 38.91096 115.49448 17640 ft 393 kts 248°
2026-04-26 13:30 38.89776 115.46363 17646 ft 397 kts 240°
2026-04-26 13:30 38.88100 115.43546 17649 ft 400 kts 232°
2026-04-26 13:30 38.86091 115.41057 17647 ft 405 kts 223°
2026-04-26 13:31 38.83755 115.39021 17634 ft 411 kts 210°
2026-04-26 13:31 38.80974 115.38101 17640 ft 422 kts 187°
2026-04-26 13:31 38.78057 115.38592 17642 ft 430 kts 165°
2026-04-26 13:31 38.75446 115.40444 17640 ft 435 kts 142°
2026-04-26 13:32 38.73517 115.43404 17639 ft 437 kts 120°
2026-04-26 13:32 38.72538 115.47063 17643 ft 436 kts 99°
2026-04-26 13:32 38.72318 115.50923 17647 ft 436 kts 89°
2026-04-26 13:32 38.72394 115.54790 17650 ft 436 kts 85°
2026-04-26 13:33 38.72588 115.58664 17649 ft 437 kts 84°
2026-04-26 13:33 38.72829 115.62525 17650 ft 437 kts 84°
2026-04-26 13:33 38.73090 115.66404 17656 ft 437 kts 83°
2026-04-26 13:33 38.73356 115.70262 17655 ft 435 kts 83°
2026-04-26 13:34 38.73627 115.74098 17654 ft 433 kts 83°
2026-04-26 13:34 38.74010 115.77921 17652 ft 433 kts 79°
2026-04-26 13:34 38.74626 115.81683 17650 ft 433 kts 73°
2026-04-26 13:34 38.75189 115.84145 17647 ft 433 kts 70°
2026-04-26 13:35 38.76691 115.88888 17647 ft 431 kts 62°
2026-04-26 13:35 38.78139 115.92232 17650 ft 428 kts 55°
2026-04-26 13:35 38.79859 115.95316 17649 ft 425 kts 47°
2026-04-26 13:35 38.81940 115.97942 17640 ft 418 kts 37°
2026-04-26 13:36 38.84242 116.00173 17645 ft 415 kts 32°
2026-04-26 13:36 38.86599 116.02316 17648 ft 417 kts 32°
2026-04-26 13:36 38.88875 116.04628 17645 ft 421 kts 37°
2026-04-26 13:36 38.91038 116.07148 17643 ft 421 kts 39°
2026-04-26 13:37 38.93228 116.09639 17652 ft 419 kts 37°
2026-04-26 13:37 38.95477 116.11998 17661 ft 418 kts 35°
2026-04-26 13:37 38.97716 116.14353 17661 ft 418 kts 36°
2026-04-26 13:37 38.99922 116.16779 17659 ft 418 kts 37°
2026-04-26 13:38 39.02119 116.19212 17662 ft 417 kts 37°
2026-04-26 13:38 39.04339 116.21616 17661 ft 418 kts 36°
2026-04-26 13:38 39.06567 116.24018 17662 ft 419 kts 37°
2026-04-26 13:38 39.08791 116.26444 17669 ft 420 kts 37°
2026-04-26 13:39 39.11000 116.28868 17677 ft 418 kts 37°
2026-04-26 13:39 39.13213 116.31286 17662 ft 416 kts 37°
2026-04-26 13:39 39.15422 116.33691 17659 ft 417 kts 37°
2026-04-26 13:39 39.17700 116.35966 17639 ft 413 kts 27°
2026-04-26 13:40 39.20370 116.37124 17643 ft 404 kts
2026-04-26 13:40 39.23121 116.36850 17644 ft 396 kts 341°
2026-04-26 13:40 39.25525 116.35255 17652 ft 389 kts 323°
2026-04-26 13:40 39.27655 116.33130 17661 ft 387 kts 320°
2026-04-26 13:41 39.29764 116.30988 17661 ft 387 kts 321°
2026-04-26 13:41 39.31997 116.29033 17660 ft 390 kts 327°
2026-04-26 13:41 39.34359 116.27324 17662 ft 391 kts 329°
2026-04-26 13:41 39.36728 116.25603 17659 ft 391 kts 327°
2026-04-26 13:42 39.39018 116.23744 17662 ft 391 kts 325°
2026-04-26 13:42 39.41311 116.21851 17662 ft 391 kts 326°
2026-04-26 13:42 39.43633 116.20030 17662 ft 391 kts 327°
2026-04-26 13:42 39.45960 116.18233 17661 ft 390 kts 327°
2026-04-26 13:43 39.48269 116.16403 17657 ft 389 kts 326°
2026-04-26 13:43 39.50568 116.14575 17654 ft 388 kts 327°
2026-04-26 13:43 39.53017 116.13091 17647 ft 391 kts 336°
2026-04-26 13:43 39.55627 116.12111 17646 ft 394 kts 345°
2026-04-26 13:44 39.58354 116.11613 17659 ft 397 kts 350°
2026-04-26 13:44 39.61088 116.11208 17662 ft 397 kts 349°
2026-04-26 13:44 39.63823 116.10781 17662 ft 397 kts 349°
2026-04-26 13:44 39.66559 116.10356 17662 ft 397 kts 349°
2026-04-26 13:45 39.69301 116.09938 17659 ft 397 kts 349°
2026-04-26 13:45 39.72041 116.09519 17658 ft 397 kts 349°
2026-04-26 13:45 39.74775 116.09098 17658 ft 395 kts 349°
2026-04-26 13:45 39.77441 116.08692 17670 ft 375 kts 349°
2026-04-26 13:46 39.79950 116.08312 17642 ft 352 kts 349°
2026-04-26 13:46 39.82292 116.07953 17635 ft 327 kts 349°
2026-04-26 13:46 39.84485 116.07870 17636 ft 304 kts 355°
2026-04-26 13:46 39.86520 116.07886 17636 ft 282 kts 354°
2026-04-26 13:47 39.88448 116.07869 17495 ft 277 kts 353°
2026-04-26 13:47 39.90391 116.07856 17161 ft 283 kts 354°
2026-04-26 13:47 39.92370 116.07861 16795 ft 288 kts 354°
2026-04-26 13:47 39.94375 116.07870 16411 ft 288 kts 355°
2026-04-26 13:48 39.96363 116.07877 16039 ft 284 kts 355°
2026-04-26 13:48 39.98318 116.07879 15665 ft 279 kts 354°
2026-04-26 13:48 40.00245 116.07879 15293 ft 275 kts 354°
2026-04-26 13:48 40.02146 116.07880 14929 ft 272 kts 355°
2026-04-26 13:49 40.04028 116.07878 14576 ft 271 kts 355°
2026-04-26 13:49 40.05914 116.07880 14219 ft 272 kts 355°
2026-04-26 13:49 40.07800 116.08039 13853 ft 275 kts
2026-04-26 13:49 40.09644 116.08747 13509 ft 278 kts 17°
2026-04-26 13:50 40.11347 116.09910 13210 ft 278 kts 25°
2026-04-26 13:50 40.13034 116.11156 12903 ft 278 kts 24°
2026-04-26 13:50 40.14719 116.12378 12603 ft 278 kts 24°
2026-04-26 13:50 40.16408 116.13607 12302 ft 279 kts 25°
2026-04-26 13:51 40.18102 116.14852 11994 ft 280 kts 25°
2026-04-26 13:51 40.19797 116.16093 11680 ft 280 kts 25°
2026-04-26 13:51 40.21489 116.17332 11384 ft 279 kts 25°
2026-04-26 13:51 40.23172 116.18564 11083 ft 277 kts 25°
2026-04-26 13:52 40.24848 116.19793 10787 ft 276 kts 26°
2026-04-26 13:52 40.26521 116.21023 10482 ft 276 kts 26°
2026-04-26 13:52 40.28193 116.22247 10181 ft 276 kts 26°
2026-04-26 13:52 40.29860 116.23471 9880 ft 275 kts 26°
2026-04-26 13:53 40.31517 116.24689 9571 ft 274 kts 27°
2026-04-26 13:53 40.33171 116.25906 9279 ft 272 kts 27°
2026-04-26 13:53 40.34824 116.27120 8973 ft 273 kts 27°
2026-04-26 13:53 40.36482 116.28344 8674 ft 275 kts 28°
2026-04-26 13:54 40.38035 116.29782 8368 ft 276 kts 43°
2026-04-26 13:54 40.39244 116.31699 8246 ft 264 kts 54°
2026-04-26 13:54 40.39951 116.33987 7782 ft 276 kts 76°
2026-04-26 13:55 40.40313 116.38900 7190 ft 266 kts 89°
2026-04-26 13:55 40.40389 116.40489 7001 ft 261 kts 89°
2026-04-26 13:55 40.40605 116.45849 6379 ft 244 kts 94°
2026-04-26 13:56 40.40599 116.48057 6107 ft 239 kts 96°
2026-04-26 13:56 40.40295 116.50144 5846 ft 229 kts 114°
2026-04-26 13:56 40.39600 116.51973 5605 ft 222 kts 128°
2026-04-26 13:56 40.38597 116.53461 5361 ft 216 kts 143°
2026-04-26 13:57 40.37368 116.54543 5129 ft 211 kts 156°
2026-04-26 13:57 40.36009 116.55178 4908 ft 207 kts 169°
2026-04-26 13:57 40.34619 116.55416 4896 ft 199 kts 175°
2026-04-26 13:57 40.33232 116.55638 4827 ft 207 kts 174°
2026-04-26 13:58 40.31778 116.55898 4612 ft 214 kts 173°
2026-04-26 13:58 40.30303 116.56127 4324 ft 212 kts 174°
2026-04-26 13:58 40.28852 116.56355 4040 ft 209 kts 173°
2026-04-26 13:58 40.27417 116.56586 3767 ft 207 kts 174°
2026-04-26 13:59 40.26024 116.56797 3490 ft 197 kts 173°
2026-04-26 13:59 40.24694 116.57010 3238 ft 189 kts 172°
2026-04-26 13:59 40.23408 116.57210 2986 ft 183 kts 171°
2026-04-26 14:00 40.19813 116.57779 2281 ft 155 kts 171°
2026-04-26 14:00 40.18825 116.57931 2095 ft 137 kts 171°
2026-04-26 14:00 40.18235 116.58022 2030 ft 121 kts 171°
2026-04-26 14:01 40.17176 116.58193 1774 ft 109 kts 170°
2026-04-26 14:01 40.16438 116.58309 1631 ft 105 kts 171°
2026-04-26 14:01 40.15711 116.58423 1494 ft 106 kts 170°
2026-04-26 14:01 40.14976 116.58541 1360 ft 108 kts 171°
2026-04-26 14:02 40.14216 116.58660 1210 ft 111 kts 171°
2026-04-26 14:02 40.13449 116.58779 1056 ft 111 kts 171°
2026-04-26 14:02 40.12682 116.58901 897 ft 113 kts 171°
2026-04-26 14:02 40.11891 116.59021 754 ft 114 kts 173°
2026-04-26 14:03 40.11110 116.59144 589 ft 114 kts 171°
2026-04-26 14:03 40.10319 116.59266 437 ft 117 kts 173°
2026-04-26 14:03 40.09507 116.59392 277 ft 118 kts 172°
2026-04-26 14:03 40.08701 116.59519 139 ft 113 kts 172°
2026-04-26 14:04 40.08025 116.59635 116 ft 80 kts 175°
2026-04-26 14:04 40.07602 116.59693 118 ft 46 kts 173°
2026-04-26 14:04 40.07343 116.59731 118 ft 36 kts 174°
2026-04-26 14:04 40.07086 116.59682 116 ft 26 kts 200°
2026-04-26 14:05 40.06949 116.59622 117 ft 22 kts 198°
2026-04-26 14:05 40.06785 116.59586 117 ft 26 kts 172°
2026-04-26 14:05 40.06601 116.59615 115 ft 28 kts 173°
2026-04-26 14:05 40.06397 116.59648 115 ft 31 kts 173°
2026-04-26 14:06 40.06174 116.59682 118 ft 24 kts 174°
2026-04-26 14:06 40.06124 116.59642 115 ft 7 kts 261°
2026-04-26 14:06 40.06102 116.59581 118 ft 7 kts 196°
2026-04-26 14:06 40.06068 116.59519 118 ft 9 kts 223°
2026-04-26 14:07 40.06002 116.59513 118 ft 12 kts 173°
2026-04-26 14:07 40.05904 116.59528 116 ft 17 kts 173°
2026-04-26 14:07 40.05774 116.59548 116 ft 21 kts 173°
2026-04-26 14:07 40.05616 116.59573 118 ft 25 kts 173°
2026-04-26 14:08 40.05539 116.59570 117 ft 7 kts 238°
2026-04-26 14:08 40.05535 116.59535 117 ft 5 kts 263°
2026-04-26 14:08 40.05529 116.59479 116 ft 5 kts 262°
2026-04-26 14:08 40.05528 116.59462 116 ft 0 kts 263°
2026-04-26 14:11 40.05528 116.59463 115 ft 0 kts 263°